Regional Weather Roundup
Issued by NWS

Home | Current Version | Previous Version | Text Only | Print | Product List | Glossary Off
Versions: 1 2 3 4 5 6 7 8 9 10 11 12 13 14 15 16 17 18 19 20 21 22 23 24 25 26 27 28 29 30 31 32 33 34 35 36 37 38 39 40 41 42 43 44 45 46 47 48 49 50

000
ASUS45 KTFX 300304
RWRMT
MONTANA HOURLY WEATHER ROUNDUP
NATIONAL WEATHER SERVICE GREAT FALLS MT
904 PM MDT FRI AUG 29 2014

NOTE: "FAIR" INDICATES FEW OR NO CLOUDS BELOW 12000 FEET WITH NO
SIGNIFICANT WEATHER AND/OR OBSTRUCTIONS TO VISIBILITY.

* THESE STATIONS ARE NOT UNDER NWS QUALITY CONTROL. THEY DO NOT
   REPORT WEATHER SUCH AS PRECIPITATION OR FOG.

MTZ001>007-043-300400-
WEST OF THE DIVIDE
CITY           SKY/WX    TMP DP  RH WIND       PRES   REMARKS
KALISPELL      CLOUDY    73  37  27 W5        29.78R
MISSOULA       PTCLDY    73  37  27 NW5       29.82R
BUTTE          PTCLDY    63  43  48 S9        29.94S
MULLAN PASS    MOCLDY    57  32  39 W8        29.99F
* LINCOLN      N/A       69  39  34 S3G12      N/A
* LOOKOUT PASS N/A       65  36  34 E2         N/A
* POLSON       N/A       71  35  27 W2G10      N/A
* RONAN APT    MOCLDY    73  43  34 N/A        N/A
* SEELEY LAKE  N/A       69  35  29 N/A        N/A
* THOMP F APT  MOCLDY    61  38  43 N4G27      N/A
$$

MTZ008-052>055-300400-
SOUTHWEST MONTANA
CITY           SKY/WX    TMP DP  RH WIND       PRES   REMARKS
BOZEMAN        PTCLDY    70  48  46 S9        29.89R
DILLON         TSTM      73  39  29 S16G25    29.92R
W YELLOWSTONE  MOCLDY    59  41  51 NW6       30.13F
* THREE FORKS  PTCLDY    70  70 100 N/A        N/A
* BOULDER HILL N/A       61  38  43 N1         N/A
* MONIDA PASS  N/A       57  45  64 W5         N/A
* RAYNOLDS PAS N/A       59  25  27 E12        N/A
* WHITEHALL    N/A       72  40  31 E1G6       N/A
* WISE RIVER   N/A       66  34  31 SW4G9      N/A
$$

MTZ009>010-012-014-046-048-049-054-300400-
EAST SLOPES AND CENTRAL MONTANA
CITY           SKY/WX    TMP DP  RH WIND       PRES   REMARKS
CUT BANK       CLEAR     66  45  47 S6        29.81S
GREAT FALLS    CLEAR     68  43  40 S6        29.80F
HELENA         CLEAR     72  46  40 SW6       29.84R
MALMSTROM AFB  CLEAR     68  45  44 S8        29.82R
* CONRAD       CLEAR     66  46  49 N/A        N/A
* EAST GLACIER N/A       64  40  41 W11        N/A
* MONARCH      N/A       60  32  35 S8         N/A
* PENDROY      N/A       65  37  36 NE2G7      N/A
* SAINT MARY   N/A       58  50  75 SE4        N/A
* SWEET GRASS  N/A       70  40  34 SW14       N/A
$$

MTZ011-013-016-021-035-040-045-047-050-051-300400-
NORTH CENTRAL MONTANA
CITY           SKY/WX    TMP DP  RH WIND       PRES   REMARKS
HAVRE          CLEAR     66  52  61 E7        29.79F
LEWISTOWN      PTCLDY    66  52  61 SE9       29.89S
* CHESTER      N/A       70  48  46 SE6G13     N/A
* DENTON       N/A       65  46  50 SE6        N/A
* GEYSER       N/A       62  43  50 SE9        N/A
* JUDITH GAP   N/A       63  48  58 SE16       N/A
* LOMA         N/A       70  54  57 NE11       N/A
$$

MTZ017>020-022>027-061-062-300400-
NORTHEAST MONTANA
CITY           SKY/WX    TMP DP  RH WIND       PRES   REMARKS
GLASGOW        CLEAR     63  54  73 SE10      29.91R
GLENDIVE       CLEAR     61  52  72 E6        29.97S
JORDAN         CLEAR     63  54  73 SE6       29.92R
SIDNEY         CLEAR     59  52  78 CALM      29.97S
WOLF POINT     CLEAR     63  52  68 E3        29.92S
* BEAVER HILL  N/A       58  52  81 E4         N/A
* CIRCLE       N/A       62  53  73 N/A        N/A
* LINDSAY DVD  N/A       56  51  83 E6         N/A
* NAVAJO       N/A       60  48  65 SE6        N/A
$$

MTZ028>042-056>058-300400-
SOUTHCENTRAL AND SOUTHEAST MONTANA
CITY           SKY/WX    TMP DP  RH WIND       PRES   REMARKS
BAKER          CLEAR     55  52  90 E3        29.99S
BILLINGS       FAIR      70  54  57 E6        29.92S
LIVINGSTON     PTCLDY    72  52  49 E8        29.91R
MILES CITY     CLEAR     66  50  56 E6        29.95R
* LAUREL APT   CLEAR     68  54  61 N/A        N/A
* ROUNDUP APT  PTCLDY    66  50  56 N/A        N/A
* ALZADA       N/A       63  51  65 NE7        N/A
* HYSHAM       N/A       65  45  49 E4         N/A
* LAME DEER    N/A       64  50  61 E4         N/A
* REED POINT   N/A       70  53  55 SE4        N/A
* ROSCOE HILL  N/A       64  42  45 SE4        N/A
$$

REGIONAL REPORTS...DAKOTAS
CITY           SKY/WX    TMP DP  RH WIND       PRES   REMARKS
WILLISTON      CLEAR     61  50  67 E6        29.96R
DICKINSON      CLEAR     57  50  78 E6        29.98R
BEACH          N/A       54  54 100 SE6       29.99S
CROSBY         CLEAR     54  50  86 SE7       29.96S
TIOGA          CLEAR     52  52 100 E5        30.01R
WATFORD CITY   CLEAR     55  50  83 SE7       29.96R
BISMARCK       CLEAR     59  55  87 E5        29.98R
GRAND FORKS    CLOUDY    63  55  75 N15       29.90R
FARGO          CLOUDY    63  57  81 N18       29.85R
BUFFALO SD     CLEAR     61  52  72 NE7       29.94R
RAPID CITY     FAIR      61  54  78 NE9       30.02R
$$

REGIONAL REPORTS...WYOMING/IDAHO/WASHINGTON
CITY           SKY/WX    TMP DP  RH WIND       PRES   REMARKS
GILLETTE       CLEAR     57  52  83 SW5       30.02R
SHERIDAN       CLEAR     63  52  68 S5        29.98R
CODY           PTCLDY    70  45  41 S5        30.00R
YELLOWSTONE LA PTCLDY    48  45  89 NW3       30.22R
SALMON         PTCLDY    70  52  53 E5        29.82R
MULLAN PASS    MOCLDY    57  32  39 W8        29.99S
SAND POINT     CLOUDY    72  41  33 SW6       29.78S
SPOKANE        CLOUDY    72  41  33 W12       29.83R

$$



USA.gov is the U.S. government's official web portal to all federal, state and local government web resources and services.